Mineral Point, WI

3:50 PM CDT on September 26, 2017 (GMT -0500)
Iowa County

Weather History for KMRJ - December, 2013

Change the Weather History Date:

Sunday, December 15, 2013

  Actual Average (KLNR) Record (KLNR)
Temperature  
Mean Temperature 12 °F -  
Max Temperature 17 °F 30 °F 51 °F (2011)
Min Temperature 8 °F 16 °F -13 °F (2010)
Degree Days  
Heating Degree Days 52    
Moisture  
Dew Point 1 °F    
Average Humidity 65    
Maximum Humidity 79    
Minimum Humidity 52    
Precipitation  
Precipitation 0.00 in - - ()
Sea Level Pressure  
Sea Level Pressure 30.00 in    
Wind  
Wind Speed 11 mph (WNW)    
Max Wind Speed 17 mph    
Max Gust Speed 25 mph    
Visibility 10 miles    
Events Snow    
Averages and records for this station are not official NWS values.
T = Trace of Precipitation, MM = Missing Value Source: NWS Daily Summary

Daily Weather History Graph

Daily Weather History Graph

Search for Another Location

Airport or City:

Trip Planner

Search our weather history database for the weather conditions in past years. The results will help you decide how hot, cold, wet, or windy it might be!

Date:

Astronomy

Dec. 15, 2013 Rise Set
Actual Time 7:25 AM CST 4:27 PM CST
Civil Twilight 6:52 AM CST 4:59 PM CST
Nautical Twilight 6:17 AM CST 5:35 PM CST
Astronomical Twilight 5:42 AM CST 6:09 PM CST
Moon 3:33 PM CST (12/15) 5:39 AM CST (12/15)
Length of Visible Light 10h 06m
Length of Day
9h 02m
Waxing Gibbous, 98% of the Moon is Illuminated
Dec 15
Waxing Gibbous
Dec 17
Full
Dec 25
Last Quarter
Jan 1
New
Jan 7
First Quarter

Hourly Weather History & Observations

Time (CST) Temp. Windchill Dew Point Humidity Pressure Visibility Wind Dir Wind Speed Gust Speed Precip Events Conditions
12:15 AM 17.6 °F 3.2 °F 12.2 °F 79% 29.93 in 5.0 mi West 15.0 mph - N/A Snow Light Snow
12:35 AM 17.6 °F 2.2 °F 10.4 °F 73% 29.93 in 7.0 mi West 17.3 mph 24.2 mph N/A Snow Light Snow
12:55 AM 15.8 °F 0.3 °F 8.6 °F 73% 29.93 in 10.0 mi West 16.1 mph 23.0 mph N/A Snow Light Snow
1:15 AM 15.8 °F 2.1 °F 8.6 °F 73% 29.94 in 10.0 mi WNW 12.7 mph 16.1 mph N/A Snow Light Snow
1:35 AM 15.8 °F 1.4 °F 8.6 °F 73% 29.94 in 10.0 mi WNW 13.8 mph 25.3 mph N/A Snow Light Snow
1:55 AM 14.0 °F -1.4 °F 8.6 °F 79% 29.94 in 10.0 mi West 15.0 mph 23.0 mph N/A Snow Light Snow
2:15 AM 14.0 °F -2.0 °F 8.6 °F 79% 29.94 in 7.0 mi West 16.1 mph 20.7 mph N/A Snow Light Snow
2:35 AM 14.0 °F -1.4 °F 6.8 °F 73% 29.95 in 10.0 mi WNW 15.0 mph 20.7 mph N/A   Overcast
2:55 AM 14.0 °F -0.2 °F 6.8 °F 73% 29.95 in 10.0 mi WNW 12.7 mph 17.3 mph N/A Snow Light Snow
3:15 AM 12.2 °F -2.5 °F 5.0 °F 73% 29.96 in 7.0 mi NW 12.7 mph 18.4 mph N/A Snow Light Snow
3:35 AM 12.2 °F -1.8 °F 3.2 °F 67% 29.95 in 10.0 mi NW 11.5 mph - N/A   Scattered Clouds
3:55 AM 12.2 °F 1.7 °F 3.2 °F 67% 29.95 in 10.0 mi WNW 6.9 mph - N/A   Mostly Cloudy
4:15 AM 10.4 °F -3.3 °F 3.2 °F 73% 29.95 in 10.0 mi WNW 10.4 mph 16.1 mph N/A   Mostly Cloudy
4:35 AM 10.4 °F -2.4 °F 3.2 °F 73% 29.96 in 10.0 mi WNW 9.2 mph - N/A Snow Light Snow
4:55 AM 10.4 °F -3.3 °F 3.2 °F 73% 29.96 in 10.0 mi West 10.4 mph - N/A   Overcast
5:15 AM 10.4 °F -3.3 °F 3.2 °F 73% 29.96 in 10.0 mi West 10.4 mph 17.3 mph N/A   Overcast
5:35 AM 10.4 °F -4.1 °F 3.2 °F 73% 29.97 in 10.0 mi WNW 11.5 mph - N/A   Overcast
5:55 AM 10.4 °F -3.3 °F 3.2 °F 73% 29.97 in 10.0 mi WNW 10.4 mph - N/A   Overcast
6:15 AM 10.4 °F -2.4 °F 3.2 °F 73% 29.97 in 10.0 mi WNW 9.2 mph - N/A   Overcast
6:35 AM 8.6 °F -6.3 °F 3.2 °F 79% 29.98 in 10.0 mi WNW 11.5 mph - N/A   Overcast
6:55 AM 8.6 °F -3.7 °F 1.4 °F 73% 29.98 in 10.0 mi West 8.1 mph 16.1 mph N/A   Overcast
7:15 AM 8.6 °F -4.7 °F 1.4 °F 73% 29.98 in 10.0 mi WNW 9.2 mph 16.1 mph N/A   Overcast
7:35 AM 8.6 °F -4.7 °F 1.4 °F 73% 29.98 in 10.0 mi WNW 9.2 mph - N/A   Overcast
7:55 AM 8.6 °F -5.5 °F 1.4 °F 73% 29.99 in 10.0 mi West 10.4 mph - N/A   Overcast
8:15 AM 8.6 °F -6.3 °F 1.4 °F 73% 29.99 in 10.0 mi West 11.5 mph - N/A   Overcast
8:35 AM 8.6 °F -4.7 °F 1.4 °F 73% 29.99 in 10.0 mi West 9.2 mph - N/A   Overcast
8:55 AM 8.6 °F -6.3 °F 1.4 °F 73% 30.00 in 10.0 mi West 11.5 mph - N/A   Overcast
9:15 AM 10.4 °F -5.4 °F -0.4 °F 62% 30.01 in 10.0 mi WNW 13.8 mph 18.4 mph N/A   Overcast
9:35 AM 10.4 °F -2.4 °F -0.4 °F 62% 30.02 in 10.0 mi WNW 9.2 mph - N/A   Overcast
9:55 AM 10.4 °F -3.3 °F -0.4 °F 62% 30.02 in 10.0 mi WNW 10.4 mph - N/A   Overcast
10:15 AM 10.4 °F -3.3 °F 1.4 °F 67% 30.02 in 10.0 mi WNW 10.4 mph - N/A   Overcast
10:35 AM 10.4 °F -3.3 °F 1.4 °F 67% 30.01 in 10.0 mi WNW 10.4 mph - N/A   Overcast
10:55 AM 10.4 °F -2.4 °F 1.4 °F 67% 30.02 in 10.0 mi NW 9.2 mph - N/A   Overcast
11:15 AM 10.4 °F -3.3 °F -0.4 °F 62% 30.01 in 10.0 mi WNW 10.4 mph - N/A   Overcast
11:35 AM 12.2 °F -0.2 °F 1.4 °F 62% 30.01 in 10.0 mi WNW 9.2 mph - N/A   Overcast
11:55 AM 12.2 °F 1.7 °F -0.4 °F 57% 30.00 in 10.0 mi NW 6.9 mph - N/A   Overcast
12:15 PM 12.2 °F 0.7 °F -0.4 °F 57% 30.01 in 10.0 mi NW 8.1 mph 16.1 mph N/A   Overcast
12:35 PM 12.2 °F -0.2 °F 1.4 °F 62% 30.00 in 10.0 mi WNW 9.2 mph - N/A   Scattered Clouds
12:55 PM 12.2 °F 1.7 °F 1.4 °F 62% 29.99 in 10.0 mi WNW 6.9 mph - N/A   Clear
1:15 PM 14.0 °F 2.9 °F 1.4 °F 57% 29.98 in 10.0 mi West 8.1 mph - N/A   Clear
1:35 PM 14.0 °F 2.0 °F 1.4 °F 57% 29.99 in 10.0 mi West 9.2 mph - N/A   Clear
1:55 PM 14.0 °F 2.0 °F 1.4 °F 57% 30.00 in 10.0 mi West 9.2 mph - N/A   Clear
2:15 PM 14.0 °F 0.5 °F 1.4 °F 57% 30.00 in 10.0 mi West 11.5 mph - N/A   Clear
2:35 PM 14.0 °F -0.2 °F 1.4 °F 57% 30.00 in 10.0 mi West 12.7 mph - N/A   Scattered Clouds
2:55 PM 14.0 °F -0.2 °F -0.4 °F 53% 30.00 in 10.0 mi West 12.7 mph - N/A   Scattered Clouds
3:15 PM 12.2 °F -1.8 °F -0.4 °F 57% 30.00 in 10.0 mi West 11.5 mph - N/A   Scattered Clouds
3:35 PM 12.2 °F 0.7 °F -0.4 °F 57% 30.01 in 10.0 mi West 8.1 mph - N/A   Clear
3:55 PM 12.2 °F 1.7 °F -0.4 °F 57% 30.01 in 10.0 mi West 6.9 mph - N/A   Clear
4:15 PM 12.2 °F 1.7 °F -0.4 °F 57% 30.01 in 10.0 mi West 6.9 mph - N/A   Clear
4:35 PM 10.4 °F -0.4 °F -0.4 °F 62% 30.02 in 10.0 mi West 6.9 mph - N/A   Clear
4:55 PM 10.4 °F -0.4 °F -0.4 °F 62% 30.02 in 10.0 mi West 6.9 mph - N/A   Clear
5:15 PM 10.4 °F -0.4 °F -0.4 °F 62% 30.02 in 10.0 mi WNW 6.9 mph - N/A   Clear
5:35 PM 10.4 °F - -0.4 °F 62% 30.02 in 10.0 mi Calm Calm - N/A   Clear
5:55 PM 10.4 °F 4.0 °F -0.4 °F 62% 30.02 in 10.0 mi WNW 3.5 mph - N/A   Clear
6:15 PM 8.6 °F 2.0 °F -0.4 °F 67% 30.03 in 10.0 mi WNW 3.5 mph - N/A   Clear
6:35 PM 10.4 °F 4.0 °F -0.4 °F 62% 30.04 in 10.0 mi WNW 3.5 mph - N/A   Clear
6:55 PM 8.6 °F - -0.4 °F 67% 30.05 in 10.0 mi Calm Calm - N/A   Scattered Clouds
7:15 PM 10.4 °F 4.0 °F -0.4 °F 62% 30.05 in 10.0 mi WNW 3.5 mph - N/A   Overcast
7:35 PM 10.4 °F 4.0 °F -0.4 °F 62% 30.06 in 10.0 mi WNW 3.5 mph - N/A   Overcast
7:55 PM 10.4 °F - 1.4 °F 67% 30.06 in 10.0 mi Calm Calm - N/A   Overcast
8:15 PM 10.4 °F 0.8 °F -0.4 °F 62% 30.06 in 10.0 mi NW 5.8 mph - N/A   Overcast
8:35 PM 10.4 °F -1.5 °F -0.4 °F 62% 30.06 in 10.0 mi NW 8.1 mph - N/A   Overcast
8:55 PM 10.4 °F -0.4 °F -0.4 °F 62% 30.07 in 10.0 mi NNW 6.9 mph - N/A   Overcast
9:15 PM 10.4 °F 0.8 °F -2.2 °F 57% 30.06 in 10.0 mi NW 5.8 mph - N/A   Overcast
9:35 PM 10.4 °F -0.4 °F -2.2 °F 57% 30.06 in 10.0 mi NNW 6.9 mph - N/A   Overcast
9:55 PM 10.4 °F -0.4 °F -4.0 °F 52% 30.07 in 10.0 mi NNW 6.9 mph - N/A   Overcast
10:15 PM 10.4 °F -1.5 °F -4.0 °F 52% 30.06 in 10.0 mi NNW 8.1 mph - N/A   Overcast
10:35 PM 10.4 °F -0.4 °F -4.0 °F 52% 30.07 in 10.0 mi North 6.9 mph - N/A   Overcast
10:55 PM 10.4 °F -0.4 °F -4.0 °F 52% 30.07 in 10.0 mi North 6.9 mph - N/A   Overcast
11:15 PM 10.4 °F 2.2 °F -4.0 °F 52% 30.07 in 10.0 mi North 4.6 mph - N/A   Overcast
11:35 PM 10.4 °F 2.2 °F -4.0 °F 52% 30.07 in 10.0 mi North 4.6 mph - N/A   Overcast
11:55 PM 10.4 °F 4.0 °F -4.0 °F 52% 30.06 in 10.0 mi NNE 3.5 mph - N/A   Overcast